This is the latest recevied weather packets stored in our database for station/object KE5QKR. If no packets are shown the sender has not sent any weather packets the latest 10 day(s).
| Time | Temp. | Humidity | Pressure | Rain* | Wind** | Luminosity | Snow |
|---|---|---|---|---|---|---|---|
| 1777946633 | 15.56° C | 86% | 1012.5 hPa | 0 mm | - | 0 W/m² | - |
| 1777946330 | 16.11° C | 86% | 1012.4 hPa | 0 mm | - | 0 W/m² | - |
| 1777946027 | 16.11° C | 86% | 1012.5 hPa | 0 mm | - | 0 W/m² | - |
| 1777945725 | 16.11° C | 85% | 1012.2 hPa | 0 mm | - | 0 W/m² | - |
| 1777945421 | 16.11° C | 85% | 1012.1 hPa | 0 mm | - | 0 W/m² | - |
| 1777945118 | 16.11° C | 84% | 1012.1 hPa | 0 mm | - | 0 W/m² | - |
| 1777944815 | 16.67° C | 83% | 1012.1 hPa | 0 mm | - | 0 W/m² | - |
| 1777944514 | 16.67° C | 82% | 1012.1 hPa | 0 mm | - | 0 W/m² | - |
| 1777944211 | 16.67° C | 81% | 1012.4 hPa | 0 mm | - | 0 W/m² | - |
| 1777943906 | 16.67° C | 79% | 1012.2 hPa | 0 mm | - | 0 W/m² | - |
| 1777943604 | 17.22° C | 79% | 1012.4 hPa | 0 mm | - | 0 W/m² | - |
| 1777943300 | 17.22° C | 79% | 1012.4 hPa | 0 mm | - | 0 W/m² | - |
| 1777942996 | 17.78° C | 79% | 1012.6 hPa | 0 mm | - | 0 W/m² | - |
| 1777942692 | 17.78° C | 78% | 1012.3 hPa | 0 mm | - | 0 W/m² | - |
| 1777942389 | 17.78° C | 77% | 1012.2 hPa | 0 mm | - | 0 W/m² | - |
| 1777942087 | 18.33° C | 73% | 1012.6 hPa | 0 mm | - | 0 W/m² | - |
| 1777941782 | 18.33° C | 70% | 1012.4 hPa | 0 mm | - | 1 W/m² | - |
| 1777941480 | 18.89° C | 70% | 1012.5 hPa | 0 mm | - | 2 W/m² | - |
| 1777941178 | 18.89° C | 69% | 1012.5 hPa | 0 mm | - | 4 W/m² | - |
| 1777940874 | 19.44° C | 68% | 1012.4 hPa | 0 mm | - | 6 W/m² | - |
| 1777940571 | 19.44° C | 67% | 1012.5 hPa | 0 mm | - | 8 W/m² | - |
| 1777940269 | 20° C | 66% | 1012.3 hPa | 0 mm | - | 10 W/m² | - |
| 1777939966 | 20° C | 66% | 1012.5 hPa | 0 mm | - | 12 W/m² | - |
| 1777939663 | 20.56° C | 64% | 1012.6 hPa | 0 mm | - | 14 W/m² | - |
| 1777939361 | 20.56° C | 61% | 1012.6 hPa | 0 mm | - | 18 W/m² | - |
* Rain latest hour (hover to see other rain measurements)
** Current wind speed in m/s (hover to see current wind gust speed)